[[{"header":{"parameterUnit":"m.s-1","parameterCategory":1,"la1":30.2991,"la2":30.254,"lo1":-89.0895,"lo2":-89.0444,"dx":0.0017,"dy":0.0017,"nx":28,"ny":28,"refTime":"2022-11-13T15:00:00:Z","depth":0,"parameterNumber":2,"parameterNumberName":"U-component_of_WINDS"},"data":[0,0,0,0,0,0,0,0,0,0,0,0,0,0,0,0,0,0,0,0,0,0,0,0,0,0,0,0,0,0,0,0,0,0,0,0,0,0,0,0,0,0,0,0,0,0,0,0,0,0,0,0,0,0,0,0,0,0,-7.1993,-7.1993,0,-7.1992,-7.1992,-7.1992,-7.1871,-7.1867,-7.1864,-7.1861,-7.186,-7.1863,-7.1866,0,0,0,0,0,0,0,0,0,0,0,0,0,-7.1888,-7.1891,-7.1993,-7.1993,-7.1993,-7.1992,-7.1992,-7.1992,-7.1871,-7.1867,-7.1863,-7.186,-7.1859,-7.1862,-7.1866,0,0,0,0,0,0,0,0,0,0,0,0,0,-7.1915,-7.1891,-7.1993,-7.1932,-7.1927,-7.1992,-7.1992,-7.1992,-7.1872,-7.1867,-7.1862,-7.1858,-7.1858,-7.1862,-7.1866,-7.1989,0,0,-7.188,-7.1882,0,0,0,0,0,0,0,0,-7.1914,-7.1919,-7.1941,-7.1937,-7.1931,-7.1927,-7.1955,-7.1991,-7.1873,-7.1893,-7.1861,-7.1856,-7.1886,-7.1888,-7.1898,-7.1989,-7.1989,-7.188,-7.1883,-7.1885,-7.1886,0,0,0,0,0,0,0,-7.1912,-7.1919,-7.1992,-7.1942,-7.1935,-7.1905,-7.1903,-7.1961,-7.1916,-7.1891,-7.1882,-7.1884,-7.1882,-7.1894,-7.1897,-7.1989,-7.188,-7.1884,-7.1887,-7.1888,-7.2178,-7.2183,0,0,0,0,0,0,-7.1919,-7.1918,-7.1992,-7.1992,-7.191,-7.1911,-7.1909,-7.1933,-7.1915,-7.1908,-7.1888,-7.1878,-7.1889,-7.1892,-7.1897,-7.2036,-7.1885,-7.1889,-7.1891,-7.2173,-7.218,-7.2185,0,0,0,0,0,0,-7.1917,-7.1926,-7.1992,-7.1953,-7.1959,-7.1918,-7.1945,-7.1935,-7.1947,-7.1913,-7.1904,-7.1908,-7.1885,-7.189,-7.1966,-7.2034,-7.1891,-7.1895,-7.2167,-7.2175,-7.2182,-7.2318,0,0,0,0,0,0,-7.1914,-7.1927,-7.1973,-7.1955,-7.1961,-7.2063,-7.1949,-7.1939,-7.1955,-7.1942,-7.193,-7.1923,-7.1882,-7.1961,-7.1971,-7.2038,-7.1898,-7.2161,-7.2171,-7.218,-7.2307,-7.2329,-7.2348,0,0,0,0,0,-7.1911,-7.2011,-7.1976,-7.1985,-7.2018,-7.2067,-7.2071,-7.2021,-7.1961,-7.2006,-7.1985,-7.1923,-7.2027,-7.1969,-7.198,-7.2049,-7.2156,-7.2168,-7.2179,-7.2298,-7.2325,-7.2348,0,0,0,0,0,0,-7.2038,-7.2008,-7.1968,-7.2066,-7.207,-7.2046,-7.2102,-7.2052,-7.2073,-7.206,-7.1999,-7.1997,-7.2082,-7.2074,-7.2011,-7.2166,-7.2081,-7.2095,-7.2167,-7.2193,-7.2213,-7.2211,-7.1902,0,0,0,0,0,-7.2078,-7.212,-7.2091,-7.218,-7.2185,-7.2144,-7.2163,-7.2125,-7.2127,-7.2128,-7.2111,-7.2115,-7.2148,-7.2171,-7.22,-7.2308,-7.2301,-7.2361,-7.2381,-7.2398,-7.2409,-7.2463,-7.2488,-7.2222,-7.2222,-7.2222,0,0,-7.2159,-7.2148,-7.2178,-7.2205,-7.2204,-7.2248,-7.2146,-7.2197,-7.2229,-7.2135,-7.2204,-7.2194,-7.2194,-7.2286,-7.2326,-7.2282,-7.2482,-7.2413,-7.2427,-7.2428,-7.2477,-7.2502,-7.2525,-7.223,-7.2229,-7.2228,0,0,-7.2329,-7.2327,-7.2398,-7.24,-7.2399,-7.2372,-7.239,-7.2374,-7.2363,-7.2433,-7.2363,-7.24,-7.2459,-7.2461,-7.247,-7.2643,-7.2586,-7.2655,-7.276,-7.2813,-7.2834,-7.2852,-7.2909,-7.2931,-7.2667,-7.2668,-7.2668,0,-7.2429,-7.2493,-7.2442,-7.2497,-7.251,-7.243,-7.2501,-7.2505,-7.2515,-7.2525,-7.2477,-7.2548,-7.2543,-7.2632,-7.2674,-7.2686,-7.2702,-7.2653,-7.2835,-7.2853,-7.2869,-7.2923,-7.2945,-7.2675,-7.2675,-7.2674,-7.2673,0,-7.2615,-7.2661,-7.2719,-7.273,-7.275,-7.2814,-7.2772,-7.2799,-7.276,-7.2738,-7.2809,-7.2801,-7.2825,-7.2845,-7.2808,-7.2929,-7.2901,-7.2846,-7.2757,-7.2903,-7.2952,-7.2973,-7.2687,-7.2684,-7.2682,-7.268,0,0,-7.286,-7.2843,-7.2865,-7.2867,-7.2862,-7.2896,-7.2957,-7.2981,-7.3003,-7.3014,-7.3061,-7.3114,-7.3062,-7.3072,-7.3035,-7.3083,-7.3216,-7.302,-7.3019,-7.3053,-7.3345,-7.3383,-7.3408,-7.3181,-7.3184,-7.3187,-7.3343,0,-7.3021,-7.3121,-7.3077,-7.3182,-7.3222,-7.3147,-7.3199,-7.3202,-7.3184,-7.3215,-7.3195,-7.3231,-7.3162,-7.3167,-7.3211,-7.319,-7.3272,-7.3179,-7.3221,-7.3223,-7.3217,-7.3435,-7.3475,-7.3622,-7.3363,-7.3366,-7.3369,0,-7.322,-7.3238,-7.3347,-7.3333,-7.3348,-7.3396,-7.3413,-7.3446,-7.3447,-7.343,-7.3443,-7.3395,-7.3452,-7.337,-7.3446,-7.3384,-7.3399,-7.3392,-7.3397,-7.3394,-7.33,-7.3433,-7.3669,-7.3689,-7.3399,-7.3397,-7.3395,0,-7.3382,-7.3435,-7.3505,-7.3511,-7.3498,-7.3533,-7.3529,-7.3526,-7.3543,-7.3559,-7.3569,-7.3593,-7.3605,-7.3624,-7.3584,-7.3528,-7.3666,-7.358,-7.3651,-7.3652,-7.3678,-7.3676,-7.3914,-7.3698,-7.3698,-7.3697,-7.3697,0,-7.3563,-7.3631,-7.3577,-7.362,-7.3694,-7.3645,-7.3719,-7.3708,-7.3706,-7.3744,-7.3684,-7.3721,-7.3669,-7.3701,-7.3671,-7.3737,-7.3745,-7.3731,-7.3721,-7.3733,-7.3734,-7.3738,-7.3725,-7.3703,-7.3702,-7.3701,-7.37,0,-7.3754,-7.3721,-7.3792,-7.3775,-7.3773,-7.3827,-7.3812,-7.3851,-7.383,-7.388,-7.3889,-7.3855,-7.389,-7.3854,-7.3887,-7.3867,-7.3955,-7.3933,-7.3953,-7.3945,-7.4016,-7.4008,-7.4261,-7.429,-7.406,-7.4062,-7.4064,0,-7.3868,-7.3919,-7.3907,-7.3929,-7.3928,-7.3965,-7.3982,-7.3936,-7.3956,-7.3962,-7.3999,-7.403,-7.4051,-7.4111,-7.4089,-7.4114,-7.4089,-7.4176,-7.4092,-7.4102,-7.4084,-7.4079,-7.4083,-7.4191,-7.4194,-7.4196,-7.4198,0,-7.4074,-7.4055,-7.4082,-7.4103,-7.4125,-7.414,-7.415,-7.4172,-7.4124,-7.415,-7.4185,-7.4202,-7.4236,-7.4266,-7.4285,-7.428,-7.4231,-7.4226,-7.4242,-7.4252,-7.426,-7.4252,-7.3994,-7.4218,-7.4216,-7.4215,-7.4214,-7.4213,-7.4226,-7.4266,-7.4264,-7.4296,-7.4299,-7.431,-7.4344,-7.4328,-7.4357,-7.438,-7.4352,-7.4395,-7.4395,-7.4415,-7.4417,-7.4449,-7.4412,-7.4438,-7.4443,-7.4449,-7.4457,-7.426,-7.4453,-7.4453,-7.4452,-7.4451,-7.4451,0,-7.4424,-7.4419,-7.4449,-7.4465,-7.449,-7.4444,-7.4452,-7.4476,-7.4514,-7.4519,-7.4541,-7.4581,-7.461,-7.4592,-7.4616,-7.4646,-7.4623,-7.4653,-7.4647,-7.4647,-7.4491,-7.4471,-7.4671,-7.467,-7.467,-7.467,-7.467,-7.467,-7.4529,-7.4594,-7.4576,-7.4641,-7.4636,-7.4677,-7.4685,-7.4695,-7.4698,-7.4745,-7.4769,-7.4757,-7.4752,-7.4776,-7.48,-7.4794,-7.4804,-7.4841,-7.4827,-7.468,-7.4658,-7.4637,-7.4618,-7.4845,-7.4845,-7.4979,-7.498,-7.4981]},{"header":{"parameterUnit":"m.s-1","parameterCategory":1,"la1":30.2991,"la2":30.254,"lo1":-89.0895,"lo2":-89.0444,"dx":0.0017,"dy":0.0017,"nx":28,"ny":28,"refTime":"2022-11-13T15:00:00:Z","depth":0,"parameterNumber":3,"parameterNumberName":"V-component_of_WINDS"},"data":[0,0,0,0,0,0,0,0,0,0,0,0,0,0,0,0,0,0,0,0,0,0,0,0,0,0,0,0,0,0,0,0,0,0,0,0,0,0,0,0,0,0,0,0,0,0,0,0,0,0,0,0,0,0,0,0,0,0,1.8693,1.8692,0,1.8675,1.8674,1.8674,1.862,1.8619,1.8618,1.8617,1.86,1.8601,1.8601,0,0,0,0,0,0,0,0,0,0,0,0,0,1.8682,1.8683,1.8693,1.8692,1.8692,1.8675,1.8674,1.8674,1.8621,1.8619,1.8618,1.8616,1.86,1.8601,1.8601,0,0,0,0,0,0,0,0,0,0,0,0,0,1.8678,1.8683,1.8693,1.8663,1.866,1.8675,1.8674,1.8674,1.8621,1.8619,1.8617,1.8616,1.86,1.8601,1.8602,1.8643,0,0,1.8605,1.8605,0,0,0,0,0,0,0,0,1.8678,1.8678,1.8668,1.8665,1.8662,1.8648,1.8665,1.8664,1.8621,1.8636,1.8617,1.8615,1.8618,1.8617,1.8618,1.8642,1.8642,1.8605,1.8605,1.8606,1.8606,0,0,0,0,0,0,0,1.8679,1.8679,1.8686,1.8668,1.8664,1.8652,1.8649,1.8664,1.8637,1.8635,1.8631,1.8629,1.8616,1.8617,1.8617,1.8641,1.8605,1.8606,1.8606,1.8607,1.87,1.8702,0,0,0,0,0,0,1.8683,1.8679,1.8686,1.8685,1.8666,1.8653,1.865,1.8654,1.8637,1.8632,1.8631,1.8627,1.8616,1.8616,1.8616,1.8664,1.8606,1.8607,1.8607,1.8699,1.8701,1.8703,0,0,0,0,0,0,1.8683,1.8684,1.8687,1.8681,1.868,1.8655,1.866,1.8655,1.8656,1.8634,1.8629,1.8637,1.8615,1.8615,1.8637,1.8663,1.8607,1.8608,1.8696,1.8699,1.8702,1.876,0,0,0,0,0,0,1.8683,1.8684,1.8699,1.8682,1.8681,1.8708,1.8662,1.8656,1.8658,1.8652,1.8638,1.8634,1.8613,1.8636,1.8638,1.8663,1.8609,1.8694,1.8698,1.8701,1.8756,1.8765,1.8772,0,0,0,0,0,1.8683,1.8717,1.87,1.8702,1.8699,1.8709,1.8709,1.8684,1.866,1.8675,1.8661,1.8634,1.866,1.8638,1.864,1.8666,1.8692,1.8697,1.8701,1.8752,1.8763,1.8772,0,0,0,0,0,0,1.8738,1.8714,1.8695,1.8725,1.872,1.87,1.8719,1.8696,1.8697,1.8692,1.8662,1.8659,1.8686,1.8678,1.8655,1.8706,1.8671,1.8676,1.871,1.872,1.8728,1.873,1.861,0,0,0,0,0,1.8754,1.8764,1.8742,1.877,1.8768,1.8744,1.8747,1.8729,1.8722,1.872,1.8707,1.8702,1.8709,1.8714,1.8719,1.8755,1.8751,1.8773,1.8782,1.8788,1.8793,1.8812,1.8822,1.8717,1.8717,1.8717,0,0,1.8786,1.8774,1.8782,1.8781,1.8774,1.8786,1.8742,1.8756,1.8764,1.8722,1.8742,1.8733,1.8725,1.8755,1.8767,1.8749,1.8821,1.8794,1.88,1.88,1.8818,1.8828,1.8836,1.872,1.8719,1.8719,0,0,1.8851,1.8843,1.8866,1.886,1.8851,1.8835,1.8841,1.8825,1.8817,1.8837,1.8805,1.8815,1.8827,1.8823,1.8823,1.8887,1.8863,1.889,1.8933,1.8952,1.896,1.8967,1.8991,1.8999,1.8894,1.8895,1.8895,0,1.8893,1.8908,1.888,1.8896,1.8897,1.8858,1.8882,1.8878,1.8871,1.8873,1.8853,1.8867,1.886,1.8888,1.8904,1.8905,1.8911,1.8891,1.8961,1.8968,1.8974,1.8996,1.9005,1.8898,1.8898,1.8897,1.8897,0,1.896,1.8971,1.8991,1.8985,1.8988,1.9007,1.8983,1.8989,1.8971,1.8957,1.8978,1.8967,1.897,1.8975,1.8957,1.9001,1.899,1.8966,1.8931,1.8988,1.9008,1.9016,1.8903,1.8902,1.8901,1.89,0,0,1.906,1.9038,1.9046,1.9043,1.9031,1.9039,1.9057,1.9059,1.9065,1.9062,1.9077,1.9089,1.9066,1.9066,1.9047,1.9064,1.9116,1.9037,1.9036,1.9053,1.9165,1.9183,1.9194,1.91,1.9101,1.9103,1.9166,0,1.9122,1.9151,1.9126,1.916,1.9171,1.9135,1.9151,1.9145,1.9133,1.914,1.9127,1.9136,1.9105,1.9105,1.912,1.9107,1.9138,1.9102,1.9114,1.9115,1.9117,1.9204,1.9224,1.9284,1.9173,1.9175,1.9176,0,1.9198,1.9198,1.9233,1.9218,1.9222,1.9236,1.9237,1.9244,1.9237,1.9227,1.9227,1.9204,1.9222,1.9187,1.9211,1.9187,1.919,1.9185,1.9187,1.9187,1.9149,1.9207,1.9302,1.9311,1.9188,1.9187,1.9186,0,1.9267,1.9276,1.9298,1.9297,1.9281,1.9292,1.9286,1.9277,1.928,1.9281,1.9282,1.9285,1.9287,1.929,1.9268,1.9245,1.9295,1.9259,1.9288,1.9289,1.93,1.93,1.9398,1.9302,1.9302,1.9302,1.9302,0,1.9339,1.9362,1.9329,1.9343,1.9368,1.934,1.9366,1.9356,1.9349,1.9361,1.933,1.9342,1.9312,1.9321,1.9304,1.9327,1.9328,1.9321,1.9316,1.9324,1.9325,1.9326,1.9322,1.9304,1.9304,1.9304,1.9303,0,1.9421,1.94,1.9422,1.9405,1.9401,1.942,1.9406,1.9418,1.9404,1.9419,1.9421,1.9399,1.9408,1.9387,1.9393,1.9382,1.9415,1.9403,1.9417,1.9414,1.9444,1.9442,1.9546,1.9559,1.9456,1.9457,1.9458,0,1.9469,1.9486,1.947,1.9476,1.9471,1.948,1.9483,1.9456,1.9461,1.9455,1.9468,1.9474,1.9478,1.9494,1.9479,1.9484,1.9473,1.9509,1.9473,1.948,1.9474,1.9473,1.9475,1.9516,1.9518,1.9519,1.952,0,1.9555,1.9544,1.9549,1.9551,1.9555,1.9555,1.9554,1.956,1.9532,1.9538,1.9547,1.955,1.9556,1.9563,1.9564,1.9558,1.9535,1.9531,1.9538,1.9546,1.9554,1.9551,1.9438,1.9529,1.9528,1.9527,1.9527,1.9526,1.9622,1.9635,1.9627,1.9634,1.9629,1.9628,1.9639,1.9627,1.9633,1.9636,1.962,1.9632,1.9625,1.9625,1.9621,1.9631,1.9615,1.9625,1.9628,1.9631,1.9636,1.9552,1.9631,1.9631,1.9631,1.963,1.963,0,1.9707,1.97,1.9707,1.9705,1.9711,1.9687,1.9684,1.9691,1.9702,1.9697,1.9701,1.9712,1.9719,1.9704,1.9709,1.9719,1.9709,1.9722,1.9721,1.972,1.965,1.9644,1.973,1.973,1.973,1.973,1.973,1.973,1.9753,1.9774,1.9762,1.9782,1.9774,1.9786,1.9786,1.9786,1.9782,1.9795,1.98,1.979,1.9782,1.9786,1.9792,1.9787,1.9791,1.9807,1.98,1.9735,1.9725,1.9715,1.9709,1.9808,1.9808,1.9869,1.9869,1.987]}]]